MED108 LIPE-LIPX

Flight info

Callsign MED108
Flight time 0h 40m
Altitude 18000
Route LUPOS L995 OSBUL
Aircraft AT76/M-SDFGIRY/S

Departure

Time 2026-05-04 07:33
Airport Bologna Guglielmo Marconi Airport (LIPE)

Arrival

Time 2026-05-04 08:14
Airport Verona Villafranca Valerio Catullo Airport (LIPX)
Time Latitude Longitude Altitude Speed Heading
2026-05-04 07:12 44.52967 11.29765 125 ft 0 kts 205°
2026-05-04 07:23 44.52961 11.29752 124 ft 10 kts 247°
2026-05-04 07:23 44.53008 11.29613 127 ft 14 kts 319°
2026-05-04 07:24 44.53093 11.29547 124 ft 14 kts 331°
2026-05-04 07:24 44.53142 11.29438 126 ft 14 kts 292°
2026-05-04 07:24 44.53179 11.29314 125 ft 14 kts 292°
2026-05-04 07:24 44.53222 11.29195 123 ft 14 kts 300°
2026-05-04 07:25 44.53273 11.29083 123 ft 14 kts 302°
2026-05-04 07:26 44.53739 11.27770 124 ft 21 kts 297°
2026-05-04 07:27 44.53821 11.27545 126 ft 27 kts 296°
2026-05-04 07:27 44.53913 11.27336 124 ft 23 kts 317°
2026-05-04 07:27 44.53982 11.27272 126 ft 0 kts 338°
2026-05-04 07:29 44.53984 11.27271 126 ft 5 kts 338°
2026-05-04 07:29 44.54079 11.27248 126 ft 17 kts 31°
2026-05-04 07:30 44.54047 11.27450 123 ft 27 kts 118°
2026-05-04 07:30 44.53920 11.27593 125 ft 20 kts 184°
2026-05-04 07:30 44.53831 11.27483 127 ft 15 kts 282°
2026-05-04 07:30 44.53886 11.27363 122 ft 14 kts 307°
2026-05-04 07:31 44.53955 11.27272 124 ft 13 kts 323°
2026-05-04 07:31 44.54035 11.27212 143 ft 13 kts 345°
2026-05-04 07:33 44.53218 11.29678 385 ft 128 kts 118°
2026-05-04 07:33 44.52771 11.30820 627 ft 139 kts 118°
2026-05-04 07:33 44.52336 11.32038 935 ft 142 kts 107°
2026-05-04 07:33 44.52302 11.33528 955 ft 167 kts 77°
2026-05-04 07:34 44.52822 11.35052 1096 ft 179 kts 51°
2026-05-04 07:34 44.53814 11.36072 1341 ft 179 kts 12°
2026-05-04 07:34 44.55048 11.36303 1569 ft 180 kts
2026-05-04 07:34 44.56291 11.36563 1905 ft 182 kts
2026-05-04 07:35 44.57530 11.36964 2267 ft 183 kts 14°
2026-05-04 07:35 44.58753 11.37460 2607 ft 183 kts 15°
2026-05-04 07:35 44.59961 11.38043 2967 ft 184 kts 21°
2026-05-04 07:35 44.61122 11.38792 3286 ft 184 kts 26°
2026-05-04 07:36 44.62234 11.39639 3552 ft 184 kts 30°
2026-05-04 07:36 44.63345 11.40590 3878 ft 185 kts 32°
2026-05-04 07:38 44.61822 11.44356 5746 ft 178 kts 192°
2026-05-04 07:38 44.60590 11.44045 6008 ft 180 kts 187°
2026-05-04 07:38 44.59335 11.43927 6292 ft 181 kts 181°
2026-05-04 07:38 44.58079 11.43996 6563 ft 181 kts 176°
2026-05-04 07:39 44.56820 11.44188 6821 ft 182 kts 173°
2026-05-04 07:39 44.55572 11.44242 7021 ft 181 kts 199°
2026-05-04 07:39 44.54652 11.43104 7236 ft 182 kts 244°
2026-05-04 07:39 44.54261 11.41400 7422 ft 185 kts 256°
2026-05-04 07:40 44.54061 11.39614 7655 ft 186 kts 262°
2026-05-04 07:40 44.53978 11.37969 7862 ft 187 kts 265°
2026-05-04 07:40 44.53931 11.36144 8089 ft 188 kts 266°
2026-05-04 07:40 44.53881 11.34311 8320 ft 188 kts 266°
2026-05-04 07:41 44.53829 11.32480 8555 ft 189 kts 266°
2026-05-04 07:41 44.53777 11.30644 8774 ft 189 kts 266°
2026-05-04 07:41 44.53709 11.28795 8996 ft 190 kts 265°
2026-05-04 07:41 44.53637 11.26953 9212 ft 190 kts 265°
2026-05-04 07:42 44.53560 11.25100 9415 ft 190 kts 265°
2026-05-04 07:42 44.53480 11.23247 9636 ft 191 kts 265°
2026-05-04 07:42 44.53403 11.21387 9876 ft 191 kts 265°
2026-05-04 07:42 44.53324 11.19523 10097 ft 192 kts 265°
2026-05-04 07:43 44.53247 11.17656 10279 ft 192 kts 265°
2026-05-04 07:43 44.53163 11.15779 10472 ft 193 kts 264°
2026-05-04 07:43 44.53076 11.13897 10655 ft 194 kts 264°
2026-05-04 07:43 44.52993 11.12029 10845 ft 195 kts 264°
2026-05-04 07:44 44.52911 11.10113 11040 ft 195 kts 264°
2026-05-04 07:44 44.52825 11.08229 11227 ft 196 kts 264°
2026-05-04 07:44 44.52747 11.06453 11394 ft 197 kts 264°
2026-05-04 07:44 44.52663 11.04539 11574 ft 198 kts 264°
2026-05-04 07:45 44.52576 11.02593 11746 ft 198 kts 264°
2026-05-04 07:45 44.52490 11.00658 11917 ft 199 kts 264°
2026-05-04 07:45 44.52403 10.98737 12084 ft 200 kts 264°
2026-05-04 07:45 44.52315 10.96795 12250 ft 200 kts 263°
2026-05-04 07:46 44.52224 10.94837 12419 ft 201 kts 263°
2026-05-04 07:46 44.52135 10.92882 12583 ft 202 kts 263°
2026-05-04 07:46 44.52049 10.90885 12763 ft 202 kts 263°
2026-05-04 07:46 44.51960 10.88944 12930 ft 203 kts 263°
2026-05-04 07:47 44.51868 10.86965 13088 ft 204 kts 263°
2026-05-04 07:47 44.51769 10.84981 13249 ft 205 kts 262°
2026-05-04 07:47 44.51673 10.82993 13418 ft 205 kts 262°
2026-05-04 07:49 44.51016 10.68903 14463 ft 209 kts 261°
2026-05-04 07:49 44.50919 10.66866 14585 ft 209 kts 262°
2026-05-04 07:49 44.50821 10.64828 14717 ft 210 kts 262°
2026-05-04 07:50 44.50724 10.62789 14866 ft 211 kts 262°
2026-05-04 07:50 44.50624 10.60738 15007 ft 211 kts 262°
2026-05-04 07:50 44.50750 10.58693 15079 ft 219 kts 290°
2026-05-04 07:50 44.51689 10.56994 15147 ft 226 kts 314°
2026-05-04 07:51 44.52947 10.55653 15249 ft 229 kts 324°
2026-05-04 07:51 44.54300 10.54479 15362 ft 229 kts 326°
2026-05-04 07:51 44.55677 10.53337 15454 ft 230 kts 327°
2026-05-04 07:51 44.57051 10.52184 15578 ft 230 kts 326°
2026-05-04 07:52 44.58408 10.50999 15690 ft 230 kts 324°
2026-05-04 07:52 44.59759 10.49781 15787 ft 231 kts 324°
2026-05-04 07:52 44.61106 10.48567 15910 ft 229 kts 324°
2026-05-04 07:52 44.62444 10.47356 16021 ft 230 kts 324°
2026-05-04 07:53 44.63797 10.46128 16066 ft 233 kts 324°
2026-05-04 07:54 44.73757 10.37089 16097 ft 251 kts 324°
2026-05-04 07:55 44.75244 10.35736 16101 ft 252 kts 324°
2026-05-04 07:55 44.76703 10.34408 16106 ft 253 kts 324°
2026-05-04 07:55 44.78179 10.33061 16104 ft 254 kts 324°
2026-05-04 07:55 44.79664 10.31707 16103 ft 254 kts 324°
2026-05-04 07:56 44.81253 10.30685 16098 ft 255 kts 350°
2026-05-04 07:56 44.83006 10.30889 16111 ft 254 kts 16°
2026-05-04 07:56 44.84652 10.31796 16107 ft 254 kts 30°
2026-05-04 07:56 44.86137 10.33133 16098 ft 253 kts 38°
2026-05-04 07:57 44.87533 10.34645 16102 ft 254 kts 41°
2026-05-04 07:57 44.88918 10.36193 16103 ft 254 kts 40°
2026-05-04 07:57 44.90311 10.37733 16107 ft 255 kts 40°
2026-05-04 07:57 44.91734 10.39239 16104 ft 256 kts 38°
2026-05-04 07:58 44.93168 10.40739 16103 ft 257 kts 39°
2026-05-04 07:58 44.94136 10.41751 16100 ft 257 kts 38°
2026-05-04 07:58 44.95586 10.43241 16104 ft 258 kts 38°
2026-05-04 07:58 44.97033 10.44738 16109 ft 258 kts 38°
2026-05-04 07:59 44.98510 10.46098 16110 ft 257 kts 24°
2026-05-04 07:59 45.00221 10.46812 16105 ft 256 kts 13°
2026-05-04 07:59 45.01965 10.47354 16101 ft 257 kts 13°
2026-05-04 07:59 45.03709 10.47904 16103 ft 258 kts 13°
2026-05-04 08:00 45.05460 10.48523 16106 ft 259 kts 15°
2026-05-04 08:00 45.07203 10.49207 15968 ft 259 kts 16°
2026-05-04 08:00 45.08921 10.49890 15798 ft 253 kts 16°
2026-05-04 08:02 45.18412 10.58207 13657 ft 219 kts 50°
2026-05-04 08:02 45.19458 10.59761 13226 ft 216 kts 49°
2026-05-04 08:02 45.20495 10.61287 12741 ft 215 kts 48°
2026-05-04 08:03 45.21563 10.62825 12029 ft 225 kts 47°
2026-05-04 08:03 45.22682 10.64446 11279 ft 233 kts 47°
2026-05-04 08:03 45.23806 10.66078 10551 ft 236 kts 46°
2026-05-04 08:03 45.24966 10.67772 9801 ft 237 kts 45°
2026-05-04 08:04 45.26123 10.69429 9021 ft 236 kts 45°
2026-05-04 08:04 45.27258 10.71063 8511 ft 225 kts 46°
2026-05-04 08:04 45.28445 10.72209 8294 ft 200 kts 12°
2026-05-04 08:04 45.29707 10.71994 8189 ft 178 kts 326°
2026-05-04 08:05 45.30448 10.70728 8051 ft 165 kts 295°
2026-05-04 08:05 45.31007 10.69233 7657 ft 176 kts 294°
2026-05-04 08:05 45.31395 10.67587 7275 ft 175 kts 266°
2026-05-04 08:05 45.30991 10.65988 6820 ft 175 kts 239°
2026-05-04 08:06 45.30383 10.64431 6237 ft 184 kts 241°
2026-05-04 08:06 45.29839 10.62763 5632 ft 189 kts 240°
2026-05-04 08:06 45.29137 10.61154 5013 ft 193 kts 235°
2026-05-04 08:06 45.28170 10.59918 4376 ft 191 kts 199°
2026-05-04 08:08 45.25045 10.67847 3117 ft 170 kts 33°
2026-05-04 08:08 45.26060 10.68604 3107 ft 162 kts 37°
2026-05-04 08:10 45.31693 10.77404 2268 ft 161 kts 45°
2026-05-04 08:11 45.32427 10.78495 2009 ft 142 kts 45°
2026-05-04 08:11 45.33714 10.80306 1694 ft 123 kts 44°
2026-05-04 08:11 45.34294 10.81165 1504 ft 118 kts 45°
2026-05-04 08:12 45.34849 10.82004 1338 ft 114 kts 44°
2026-05-04 08:12 45.35397 10.82791 1186 ft 110 kts 44°
2026-05-04 08:12 45.35946 10.83567 1049 ft 114 kts 45°
2026-05-04 08:12 45.36510 10.84378 897 ft 116 kts 46°
2026-05-04 08:13 45.37072 10.85206 743 ft 117 kts 47°
2026-05-04 08:13 45.37635 10.86035 594 ft 117 kts 47°
2026-05-04 08:13 45.38198 10.86867 426 ft 117 kts 47°
2026-05-04 08:13 45.38756 10.87696 292 ft 115 kts 46°
2026-05-04 08:14 45.39299 10.88485 234 ft 105 kts 45°
2026-05-04 08:14 45.39540 10.88828 237 ft 32 kts 45°
2026-05-04 08:14 45.39687 10.89035 237 ft 28 kts 45°
2026-05-04 08:16 45.40320 10.90247 233 ft 15 kts 94°
2026-05-04 08:16 45.40284 10.90360 237 ft 11 kts 130°
2026-05-04 08:16 45.40230 10.90439 233 ft 11 kts 135°
2026-05-04 08:17 45.40214 10.90462 233 ft 0 kts 135°